Hourly Data Report for March 27, 2012

BAGOTVILLE A
QUEBEC

48°20'00.000" N
71°00'00.000" W
159.10 m
7060400
71727
YBG

Download Data

Hourly Data (March 2012)
Hourly Data Report for March 27, 2012
TIME
LST
Temp Definition
°C
Dew Point Definition
°C
Rel Hum Definition
%
Precip. Amount Definition
mm

Wind Dir Definition
10's deg

Wind Spd Definition
km/h
Visibility Definition
km
Stn Press Definition
kPa
Hmdx Definition


Wind Chill Definition


Weather Definition


00:00 -10.3 -14.6 71   31 26 24.1 100.22   -19 Clear
01:00 -11.0 -16.6 63   30 30 24.1 100.25   -21 Clear
02:00 -11.5 -16.7 65   30 20 24.1 100.32   -20 Clear
03:00 -12.1 -18.2 60   29 22 24.1 100.35   -21 Clear
04:00 -12.7 -17.2 69   30 28 24.1 100.41   -23 Clear
05:00 -13.4 -18.2 67   29 20 24.1 100.49   -22 Mainly Clear
06:00 -13.7 -18.6 66   28 20 40.2 100.58   -23 Mainly Clear
07:00 -13.0 -18.2 65   30 30 40.2 100.67   -23 Mainly Clear
08:00 -11.4 -18.3 57   29 24 40.2 100.68   -20 Mainly Clear
09:00 -9.9 -17.2 55   29 24 40.2 100.66   -18 Mainly Clear
10:00 -8.0 -18.3 43   29 24 40.2 100.64   -16 Clear
11:00 -5.4 -15.3 46   29 28 40.2 100.59   -13 Clear
12:00 -5.6 -19.6 32   30 28 40.2 100.58   -14 Clear
13:00 -4.0 -19.5 29   29 20 40.2 100.54   -10 Clear
14:00 -3.1 -19.4 27   28 24 40.2 100.47   -10 Clear
15:00 -1.9 -17.1 30   28 17 40.2 100.33   -7 Clear
16:00 -1.4 -14.8 35   27 13 40.2 100.23   -6 Clear
17:00 -1.4 -15.3 34   25 11 40.2 100.15   -5 Mainly Clear
18:00 -2.5 -14.8 38   31 7 40.2 100.16   -5 Mainly Clear
19:00 -3.8 -15.7 39   29 11 24.1 100.17   -8 Mainly Clear
20:00 -4.4 -14.6 45     0 24.1 100.16     Mainly Clear
21:00 -3.6 -17.1 34     0 24.1 100.08     Mostly Cloudy
22:00 -4.5 -14.8 44   11 6 24.1 99.99   -7 Cloudy
23:00 -4.0 -16.7 37   14 6 24.1 99.85   -7 Cloudy

Notes on Data Quality.

Legend

  • E = Estimated
  • M = Missing
  • NA = Not Available*
  • [empty] = Indicates an unobserved value
Date modified: